Aviation Digital Data Service (ADDS)

Output produced by METARs form (1738 UTC 27 May 2017)
found at http://www.aviationweather.gov/adds/metars/
 
DNAA 271700Z 28005KT 250V310 9999 FEW012 FEW020CB 30/21 Q1013
TAF DNAA 271550Z 2718/2824 24005KT 9999 SCT012 
     PROB30 
     TEMPO 2718/2720 TS FEW020CB 
     BECMG 2808/2810 BKN011 
     BECMG 2812/2814 BKN014 
     TEMPO 2815/2820 TS FEW020CB 
     BECMG 2820/2822 FEW010
       
DNAA 271700Z 28005KT 250V310 9999 FEW012 FEW020CB 30/21 Q1013
TAF DNAA 271550Z 2718/2824 24005KT 9999 SCT012 
     PROB30 
     TEMPO 2718/2720 TS FEW020CB 
     BECMG 2808/2810 BKN011 
     BECMG 2812/2814 BKN014 
     TEMPO 2815/2820 TS FEW020CB 
     BECMG 2820/2822 FEW010
       
TAF DNAK 271540Z 2718/2824 VRB02KT 9999 FEW012 
     TEMPO 2718/2723 TS FEW012 FEW020CB 
     PROB30 2719/2722 5000 TSRA BKN010 FEW019CB 
     TEMPO 2805/2807 5000 BR
       
DNBE 271700Z 23006KT 9999 FEW010 31/26 Q1013
TAF DNBE 271540Z 2718/2824 VRB02KT 9999 FEW011 
     TEMPO 2718/2723 TS FEW011 FEW020CB 
     PROB30 2718/2720 5000 TSRA BKN010 FEW019CB 
     TEMPO 2805/2807 4000 BR 
     BECMG 2808/2810 25010KT BKN013
       
TAF DNCA 271540Z 2718/2824 25007KT 7000 BKN012 FEW021CB 
     TEMPO 2720/2800 5000-TSRA BKN008 FEW018CB 
     BECMG 2801/2803 SCT008 
     BECMG 2807/2809 BKN013 FEW022CB
       
DNEN 271700Z 14003KT 9999 SCT011 FEW020CB 31/25 Q1012
TAF DNEN 271540Z 2718/2824 VRB02KT 8000 SCT009 
     TEMPO 2802/2807 4000 BR 
     BECMG 2808/2810 21012KT BKN013
       
TAF DNGO 260950Z 2612/2718 24008KT CAVOK 
     TEMPO 2614/2618 BKN014 
     TEMPO 2616 TS FEW022CB
       
DNIB 271700Z 12005KT 9999 FEW012 31/23 Q1012
TAF DNIB 271540Z 2718/2824 VRB02KT 9999 FEW012 
     TEMPO 2718/2723 TS FEW012 FEW020CB 
     PROB30 2719/2722 5000 TSRA BKN010 FEW019CB 
     TEMPO 2805/2807 5000 BR
       
TAF DNIL 271550Z 2718/2824 16005KT 9999 BKN012 
     BECMG 2722/2724 FEW010 
     BECMG 2807/2809 22010KT BKN012 
     TEMPO 2815/2820 TS SCT013 FEW020CB
       
DNIM 271600Z 00000KT 9999 BKN014 FEW020CB 30/25 Q1012 NOSIG
TAF DNIM 271540Z 2718/2824 00000KT 8000 SCT011 FEW021CB 
     BECMG 2720/2722 SCT008 
     TEMPO 2803/2807 3000 BR 
     BECMG 2808/2810 25010KT BKN013
       
TAF DNJO 271550Z 2718/2824 14004KT 9999 FEW007 
     TEMPO 2718/2720 TS FEW018CB 
     BECMG 2808/2810 24010G20KT BKN009 
     BECMG 2812/2814 BKN012 
     TEMPO 2814/2819 TS FEW017CB
       
TAF DNKA 271550Z 2718/2824 24005KT 9999 FEW010 
     BECMG 2808/2810 BKN012 
     BECMG 2812/2814 BKN015 
     TEMPO 2816/2821 TS FEW021CB 
     BECMG 2821/2823 CAVOK
       
DNKN 271700Z 27006KT 9999 FEW020CB 35/20 Q1012 NOSIG
TAF DNKN 260950Z 2612/2718 27010KT CAVOK 
     TEMPO 2615/2620 TS FEW022CB
       
DNMM 271700Z 27006KT 9999 SCT013 30/25 Q1013 NOSIG
TAF DNMM 271540Z 2718/2824 VRB02KT 9999 FEW012 
     TEMPO 2718/2723 TS FEW012 FEW020CB 
     PROB30 2719/2722 5000 TSRA BKN010 FEW019CB 
     TEMPO 2805/2807 5000 BR
       
TAF DNMN 271550Z 2718/2824 18005KT 9999 FEW012 
     BECMG 2808/2810 25010KT BKN012 
     BECMG 2812/2814 BKN015 
     TEMPO 2816/2822 TS FEW021CB
       
DNPO 271700Z VRB02KT 9999 BKN011 FEW020CB 30/26 Q1011 TEMPO TS
TAF DNPO 271540Z 2718/2824 00000KT 8000 SCT011 FEW021CB 
     TEMPO 2718/2721 TS 
     BECMG 2722/2800 SCT009 
     TEMPO 2802/2807 5000 BR 
     PROB30 2804/2806 1500 
     BECMG 2808/2810 23010KT BKN013 FEW022CB
       
TAF DNAK 271540Z 2718/2824 VRB02KT 9999 FEW012 
     TEMPO 2718/2723 TS FEW012 FEW020CB 
     PROB30 2719/2722 5000 TSRA BKN010 FEW019CB 
     TEMPO 2805/2807 5000 BR
       
DNAA 271700Z 28005KT 250V310 9999 FEW012 FEW020CB 30/21 Q1013
TAF DNAA 271550Z 2718/2824 24005KT 9999 SCT012 
     PROB30 
     TEMPO 2718/2720 TS FEW020CB 
     BECMG 2808/2810 BKN011 
     BECMG 2812/2814 BKN014 
     TEMPO 2815/2820 TS FEW020CB 
     BECMG 2820/2822 FEW010
       
TAF DNAK 271540Z 2718/2824 VRB02KT 9999 FEW012 
     TEMPO 2718/2723 TS FEW012 FEW020CB 
     PROB30 2719/2722 5000 TSRA BKN010 FEW019CB 
     TEMPO 2805/2807 5000 BR
       
DNBE 271700Z 23006KT 9999 FEW010 31/26 Q1013
TAF DNBE 271540Z 2718/2824 VRB02KT 9999 FEW011 
     TEMPO 2718/2723 TS FEW011 FEW020CB 
     PROB30 2718/2720 5000 TSRA BKN010 FEW019CB 
     TEMPO 2805/2807 4000 BR 
     BECMG 2808/2810 25010KT BKN013
       
TAF DNCA 271540Z 2718/2824 25007KT 7000 BKN012 FEW021CB 
     TEMPO 2720/2800 5000-TSRA BKN008 FEW018CB 
     BECMG 2801/2803 SCT008 
     BECMG 2807/2809 BKN013 FEW022CB
       
DNEN 271700Z 14003KT 9999 SCT011 FEW020CB 31/25 Q1012
TAF DNEN 271540Z 2718/2824 VRB02KT 8000 SCT009 
     TEMPO 2802/2807 4000 BR 
     BECMG 2808/2810 21012KT BKN013
       
TAF DNGO 260950Z 2612/2718 24008KT CAVOK 
     TEMPO 2614/2618 BKN014 
     TEMPO 2616 TS FEW022CB
       
DNIB 271700Z 12005KT 9999 FEW012 31/23 Q1012
TAF DNIB 271540Z 2718/2824 VRB02KT 9999 FEW012 
     TEMPO 2718/2723 TS FEW012 FEW020CB 
     PROB30 2719/2722 5000 TSRA BKN010 FEW019CB 
     TEMPO 2805/2807 5000 BR
       
TAF DNIL 271550Z 2718/2824 16005KT 9999 BKN012 
     BECMG 2722/2724 FEW010 
     BECMG 2807/2809 22010KT BKN012 
     TEMPO 2815/2820 TS SCT013 FEW020CB
       
DNIM 271600Z 00000KT 9999 BKN014 FEW020CB 30/25 Q1012 NOSIG
TAF DNIM 271540Z 2718/2824 00000KT 8000 SCT011 FEW021CB 
     BECMG 2720/2722 SCT008 
     TEMPO 2803/2807 3000 BR 
     BECMG 2808/2810 25010KT BKN013
       
TAF DNJO 271550Z 2718/2824 14004KT 9999 FEW007 
     TEMPO 2718/2720 TS FEW018CB 
     BECMG 2808/2810 24010G20KT BKN009 
     BECMG 2812/2814 BKN012 
     TEMPO 2814/2819 TS FEW017CB
       
TAF DNKA 271550Z 2718/2824 24005KT 9999 FEW010 
     BECMG 2808/2810 BKN012 
     BECMG 2812/2814 BKN015 
     TEMPO 2816/2821 TS FEW021CB 
     BECMG 2821/2823 CAVOK
       
DNKN 271700Z 27006KT 9999 FEW020CB 35/20 Q1012 NOSIG
TAF DNKN 260950Z 2612/2718 27010KT CAVOK 
     TEMPO 2615/2620 TS FEW022CB
       
DNMM 271700Z 27006KT 9999 SCT013 30/25 Q1013 NOSIG
TAF DNMM 271540Z 2718/2824 VRB02KT 9999 FEW012 
     TEMPO 2718/2723 TS FEW012 FEW020CB 
     PROB30 2719/2722 5000 TSRA BKN010 FEW019CB 
     TEMPO 2805/2807 5000 BR
       
TAF DNMN 271550Z 2718/2824 18005KT 9999 FEW012 
     BECMG 2808/2810 25010KT BKN012 
     BECMG 2812/2814 BKN015 
     TEMPO 2816/2822 TS FEW021CB
       
DNPO 271700Z VRB02KT 9999 BKN011 FEW020CB 30/26 Q1011 TEMPO TS
TAF DNPO 271540Z 2718/2824 00000KT 8000 SCT011 FEW021CB 
     TEMPO 2718/2721 TS 
     BECMG 2722/2800 SCT009 
     TEMPO 2802/2807 5000 BR 
     PROB30 2804/2806 1500 
     BECMG 2808/2810 23010KT BKN013 FEW022CB
       
DNBE 271700Z 23006KT 9999 FEW010 31/26 Q1013
TAF DNBE 271540Z 2718/2824 VRB02KT 9999 FEW011 
     TEMPO 2718/2723 TS FEW011 FEW020CB 
     PROB30 2718/2720 5000 TSRA BKN010 FEW019CB 
     TEMPO 2805/2807 4000 BR 
     BECMG 2808/2810 25010KT BKN013
       
TAF DNCA 271540Z 2718/2824 25007KT 7000 BKN012 FEW021CB 
     TEMPO 2720/2800 5000-TSRA BKN008 FEW018CB 
     BECMG 2801/2803 SCT008 
     BECMG 2807/2809 BKN013 FEW022CB
       
DNAA 271700Z 28005KT 250V310 9999 FEW012 FEW020CB 30/21 Q1013
TAF DNAA 271550Z 2718/2824 24005KT 9999 SCT012 
     PROB30 
     TEMPO 2718/2720 TS FEW020CB 
     BECMG 2808/2810 BKN011 
     BECMG 2812/2814 BKN014 
     TEMPO 2815/2820 TS FEW020CB 
     BECMG 2820/2822 FEW010
       
TAF DNAK 271540Z 2718/2824 VRB02KT 9999 FEW012 
     TEMPO 2718/2723 TS FEW012 FEW020CB 
     PROB30 2719/2722 5000 TSRA BKN010 FEW019CB 
     TEMPO 2805/2807 5000 BR
       
DNBE 271700Z 23006KT 9999 FEW010 31/26 Q1013
TAF DNBE 271540Z 2718/2824 VRB02KT 9999 FEW011 
     TEMPO 2718/2723 TS FEW011 FEW020CB 
     PROB30 2718/2720 5000 TSRA BKN010 FEW019CB 
     TEMPO 2805/2807 4000 BR 
     BECMG 2808/2810 25010KT BKN013
       
TAF DNCA 271540Z 2718/2824 25007KT 7000 BKN012 FEW021CB 
     TEMPO 2720/2800 5000-TSRA BKN008 FEW018CB 
     BECMG 2801/2803 SCT008 
     BECMG 2807/2809 BKN013 FEW022CB
       
DNEN 271700Z 14003KT 9999 SCT011 FEW020CB 31/25 Q1012
TAF DNEN 271540Z 2718/2824 VRB02KT 8000 SCT009 
     TEMPO 2802/2807 4000 BR 
     BECMG 2808/2810 21012KT BKN013
       
TAF DNGO 260950Z 2612/2718 24008KT CAVOK 
     TEMPO 2614/2618 BKN014 
     TEMPO 2616 TS FEW022CB
       
DNIB 271700Z 12005KT 9999 FEW012 31/23 Q1012
TAF DNIB 271540Z 2718/2824 VRB02KT 9999 FEW012 
     TEMPO 2718/2723 TS FEW012 FEW020CB 
     PROB30 2719/2722 5000 TSRA BKN010 FEW019CB 
     TEMPO 2805/2807 5000 BR
       
TAF DNIL 271550Z 2718/2824 16005KT 9999 BKN012 
     BECMG 2722/2724 FEW010 
     BECMG 2807/2809 22010KT BKN012 
     TEMPO 2815/2820 TS SCT013 FEW020CB
       
DNIM 271600Z 00000KT 9999 BKN014 FEW020CB 30/25 Q1012 NOSIG
TAF DNIM 271540Z 2718/2824 00000KT 8000 SCT011 FEW021CB 
     BECMG 2720/2722 SCT008 
     TEMPO 2803/2807 3000 BR 
     BECMG 2808/2810 25010KT BKN013
       
TAF DNJO 271550Z 2718/2824 14004KT 9999 FEW007 
     TEMPO 2718/2720 TS FEW018CB 
     BECMG 2808/2810 24010G20KT BKN009 
     BECMG 2812/2814 BKN012 
     TEMPO 2814/2819 TS FEW017CB
       
TAF DNKA 271550Z 2718/2824 24005KT 9999 FEW010 
     BECMG 2808/2810 BKN012 
     BECMG 2812/2814 BKN015 
     TEMPO 2816/2821 TS FEW021CB 
     BECMG 2821/2823 CAVOK
       
DNKN 271700Z 27006KT 9999 FEW020CB 35/20 Q1012 NOSIG
TAF DNKN 260950Z 2612/2718 27010KT CAVOK 
     TEMPO 2615/2620 TS FEW022CB
       
DNMM 271700Z 27006KT 9999 SCT013 30/25 Q1013 NOSIG
TAF DNMM 271540Z 2718/2824 VRB02KT 9999 FEW012 
     TEMPO 2718/2723 TS FEW012 FEW020CB 
     PROB30 2719/2722 5000 TSRA BKN010 FEW019CB 
     TEMPO 2805/2807 5000 BR
       
TAF DNMN 271550Z 2718/2824 18005KT 9999 FEW012 
     BECMG 2808/2810 25010KT BKN012 
     BECMG 2812/2814 BKN015 
     TEMPO 2816/2822 TS FEW021CB
       
DNPO 271700Z VRB02KT 9999 BKN011 FEW020CB 30/26 Q1011 TEMPO TS
TAF DNPO 271540Z 2718/2824 00000KT 8000 SCT011 FEW021CB 
     TEMPO 2718/2721 TS 
     BECMG 2722/2800 SCT009 
     TEMPO 2802/2807 5000 BR 
     PROB30 2804/2806 1500 
     BECMG 2808/2810 23010KT BKN013 FEW022CB
       
DNEN 271700Z 14003KT 9999 SCT011 FEW020CB 31/25 Q1012
TAF DNEN 271540Z 2718/2824 VRB02KT 8000 SCT009 
     TEMPO 2802/2807 4000 BR 
     BECMG 2808/2810 21012KT BKN013
       
DNAA 271700Z 28005KT 250V310 9999 FEW012 FEW020CB 30/21 Q1013
TAF DNAA 271550Z 2718/2824 24005KT 9999 SCT012 
     PROB30 
     TEMPO 2718/2720 TS FEW020CB 
     BECMG 2808/2810 BKN011 
     BECMG 2812/2814 BKN014 
     TEMPO 2815/2820 TS FEW020CB 
     BECMG 2820/2822 FEW010
       
TAF DNAK 271540Z 2718/2824 VRB02KT 9999 FEW012 
     TEMPO 2718/2723 TS FEW012 FEW020CB 
     PROB30 2719/2722 5000 TSRA BKN010 FEW019CB 
     TEMPO 2805/2807 5000 BR
       
DNBE 271700Z 23006KT 9999 FEW010 31/26 Q1013
TAF DNBE 271540Z 2718/2824 VRB02KT 9999 FEW011 
     TEMPO 2718/2723 TS FEW011 FEW020CB 
     PROB30 2718/2720 5000 TSRA BKN010 FEW019CB 
     TEMPO 2805/2807 4000 BR 
     BECMG 2808/2810 25010KT BKN013
       
TAF DNCA 271540Z 2718/2824 25007KT 7000 BKN012 FEW021CB 
     TEMPO 2720/2800 5000-TSRA BKN008 FEW018CB 
     BECMG 2801/2803 SCT008 
     BECMG 2807/2809 BKN013 FEW022CB
       
DNEN 271700Z 14003KT 9999 SCT011 FEW020CB 31/25 Q1012
TAF DNEN 271540Z 2718/2824 VRB02KT 8000 SCT009 
     TEMPO 2802/2807 4000 BR 
     BECMG 2808/2810 21012KT BKN013
       
TAF DNGO 260950Z 2612/2718 24008KT CAVOK 
     TEMPO 2614/2618 BKN014 
     TEMPO 2616 TS FEW022CB
       
DNIB 271700Z 12005KT 9999 FEW012 31/23 Q1012
TAF DNIB 271540Z 2718/2824 VRB02KT 9999 FEW012 
     TEMPO 2718/2723 TS FEW012 FEW020CB 
     PROB30 2719/2722 5000 TSRA BKN010 FEW019CB 
     TEMPO 2805/2807 5000 BR
       
TAF DNIL 271550Z 2718/2824 16005KT 9999 BKN012 
     BECMG 2722/2724 FEW010 
     BECMG 2807/2809 22010KT BKN012 
     TEMPO 2815/2820 TS SCT013 FEW020CB
       
DNIM 271600Z 00000KT 9999 BKN014 FEW020CB 30/25 Q1012 NOSIG
TAF DNIM 271540Z 2718/2824 00000KT 8000 SCT011 FEW021CB 
     BECMG 2720/2722 SCT008 
     TEMPO 2803/2807 3000 BR 
     BECMG 2808/2810 25010KT BKN013
       
TAF DNJO 271550Z 2718/2824 14004KT 9999 FEW007 
     TEMPO 2718/2720 TS FEW018CB 
     BECMG 2808/2810 24010G20KT BKN009 
     BECMG 2812/2814 BKN012 
     TEMPO 2814/2819 TS FEW017CB
       
TAF DNKA 271550Z 2718/2824 24005KT 9999 FEW010 
     BECMG 2808/2810 BKN012 
     BECMG 2812/2814 BKN015 
     TEMPO 2816/2821 TS FEW021CB 
     BECMG 2821/2823 CAVOK
       
DNKN 271700Z 27006KT 9999 FEW020CB 35/20 Q1012 NOSIG
TAF DNKN 260950Z 2612/2718 27010KT CAVOK 
     TEMPO 2615/2620 TS FEW022CB
       
DNMM 271700Z 27006KT 9999 SCT013 30/25 Q1013 NOSIG
TAF DNMM 271540Z 2718/2824 VRB02KT 9999 FEW012 
     TEMPO 2718/2723 TS FEW012 FEW020CB 
     PROB30 2719/2722 5000 TSRA BKN010 FEW019CB 
     TEMPO 2805/2807 5000 BR
       
TAF DNMN 271550Z 2718/2824 18005KT 9999 FEW012 
     BECMG 2808/2810 25010KT BKN012 
     BECMG 2812/2814 BKN015 
     TEMPO 2816/2822 TS FEW021CB
       
DNPO 271700Z VRB02KT 9999 BKN011 FEW020CB 30/26 Q1011 TEMPO TS
TAF DNPO 271540Z 2718/2824 00000KT 8000 SCT011 FEW021CB 
     TEMPO 2718/2721 TS 
     BECMG 2722/2800 SCT009 
     TEMPO 2802/2807 5000 BR 
     PROB30 2804/2806 1500 
     BECMG 2808/2810 23010KT BKN013 FEW022CB
       
DNIB 271700Z 12005KT 9999 FEW012 31/23 Q1012
TAF DNIB 271540Z 2718/2824 VRB02KT 9999 FEW012 
     TEMPO 2718/2723 TS FEW012 FEW020CB 
     PROB30 2719/2722 5000 TSRA BKN010 FEW019CB 
     TEMPO 2805/2807 5000 BR
       
TAF DNIL 271550Z 2718/2824 16005KT 9999 BKN012 
     BECMG 2722/2724 FEW010 
     BECMG 2807/2809 22010KT BKN012 
     TEMPO 2815/2820 TS SCT013 FEW020CB
       
TAF DNJO 271550Z 2718/2824 14004KT 9999 FEW007 
     TEMPO 2718/2720 TS FEW018CB 
     BECMG 2808/2810 24010G20KT BKN009 
     BECMG 2812/2814 BKN012 
     TEMPO 2814/2819 TS FEW017CB
       
TAF DNKA 271550Z 2718/2824 24005KT 9999 FEW010 
     BECMG 2808/2810 BKN012 
     BECMG 2812/2814 BKN015 
     TEMPO 2816/2821 TS FEW021CB 
     BECMG 2821/2823 CAVOK
       
DNKN 271700Z 27006KT 9999 FEW020CB 35/20 Q1012 NOSIG
TAF DNKN 260950Z 2612/2718 27010KT CAVOK 
     TEMPO 2615/2620 TS FEW022CB
       
DNMM 271700Z 27006KT 9999 SCT013 30/25 Q1013 NOSIG
TAF DNMM 271540Z 2718/2824 VRB02KT 9999 FEW012 
     TEMPO 2718/2723 TS FEW012 FEW020CB 
     PROB30 2719/2722 5000 TSRA BKN010 FEW019CB 
     TEMPO 2805/2807 5000 BR
       
TAF DNMN 271550Z 2718/2824 18005KT 9999 FEW012 
     BECMG 2808/2810 25010KT BKN012 
     BECMG 2812/2814 BKN015 
     TEMPO 2816/2822 TS FEW021CB
       
DNPO 271700Z VRB02KT 9999 BKN011 FEW020CB 30/26 Q1011 TEMPO TS
TAF DNPO 271540Z 2718/2824 00000KT 8000 SCT011 FEW021CB 
     TEMPO 2718/2721 TS 
     BECMG 2722/2800 SCT009 
     TEMPO 2802/2807 5000 BR 
     PROB30 2804/2806 1500 
     BECMG 2808/2810 23010KT BKN013 FEW022CB